COSMOS 2251 DEB, 34468

Orbit data source: Space-Track

COSMOS 2251 DEB, 34468 is space debris in LEO originally from a launch on Wed, 16 Jun 1993 UTC launched from the Plesetsk Missile And Space Complex (PKMTR). The debris from Iridium 33, an American commercial communications satellite, has been tracked extensively since its accidental collision with the defunct Russian satellite Cosmos 2251 in 2009. This event, occurring at high speed in low Earth orbit (LEO), generated thousands of pieces of space debris, significantly increasing the risk of further collisions. The Iridium 33 debris cloud has impacted space traffic management and orbital debris mitigation strategies, making it a subject of ongoing study in space situational awareness.

Loading next visibility...
Identifier
34468, 1993-036TM
Orbit
LEO
Country
Flag of CISCIS
Related business
Manufacturer
Unknown
Mission
Spacecraft
Bus & Motor
Unknown
Mass
Unknown
Launch date (UTC)
1993-06-16 (33 years ago)
Launch vehicle
Unknown
Launch site
Plesetsk Missile And Space Complex (PKMTR)
Object type
Payload
Rocket body
Debris
Shape & HBR
Unknown shape, 0.1 m
Radar Cross Section
Small (<0.1 m²)

Expand to show TLE details & history
Last TLE update: 20 hours ago

TLE from 20 hours ago
0 COSMOS 2251 DEB
1 34468U 93036TM  25353.41301882  .00000928  00000-0  25058-3 0  9993
2 34468  74.0130 104.7021 0076316 248.2680 111.0344 14.47641449885582
Epoch: 2025-12-19T09:54Z
TLE epoch observation values (Epoch: 2025-12-19T09:54:44.826Z)
Latitude
0.00006°
Longitude
-132.23919°
Altitude
755.829 km
Speed
7.466 km/s
True Right ascension
06h 58m 48s
True Declination
0° 00' 00"
Sunlit
Object was in full shadow at epoch
Visualization orbit readout
Latitude
Unknown
Longitude
Unknown
Altitude
Unknown
Speed
Unknown
Apparent Right ascension
Unknown
Apparent Declination
Unknown
Sunlit
N/A
Visualization observer readout
Local Sidereal Time
05:15:08
Azimuth
Unknown
Elevation
Unknown
Doppler factor
Unknown
Orbital elements
Apogee altitude
785.229 km
Perigee altitude
676.721 km
Semi-major axis
7,109.112 km
Eccentricity
0.00763
Inclination
74.013°
RAAN
104.7021°
Arg. of periapsis
248.268°
True anomaly
111.84783°
Mean anomaly
111.0344°
Eccentric anomaly
111.4414°
Mean motion
3.62093 °/min
Orbital period
99.42 mins
BSTAR
0.00025058
Loading maneuver chart data...
Computing Atmospheric mass density...

Documentation

Showing up to 5 results
|